This is the latest recevied weather packets stored in our database for station/object N5RPG. If no packets are shown the sender has not sent any weather packets the latest 10 day(s).
| Time | Temp. | Humidity | Pressure | Rain* | Wind** | Luminosity | Snow |
|---|---|---|---|---|---|---|---|
| 1778009470 | 28.89° C | 67% | 1007.5 hPa | 0 mm | - | 555 W/m² | - |
| 1778009169 | 28.33° C | 68% | 1007.7 hPa | 0 mm | - | 833 W/m² | - |
| 1778008866 | 28.33° C | 68% | 1007.6 hPa | 0 mm | - | 776 W/m² | - |
| 1778008564 | 27.78° C | 69% | 1007.8 hPa | 0 mm | - | 933 W/m² | - |
| 1778008262 | 28.33° C | 67% | 1007.9 hPa | 0 mm | - | 330 W/m² | - |
| 1778007962 | 27.78° C | 69% | 1007.9 hPa | 0 mm | - | 1024 W/m² | - |
| 1778007658 | 27.22° C | 70% | 1007.9 hPa | 0 mm | - | 408 W/m² | - |
| 1778007355 | 27.78° C | 70% | 1007.9 hPa | 0 mm | - | 400 W/m² | - |
| 1778007051 | 27.78° C | 68% | 1007.8 hPa | 0 mm | - | 681 W/m² | - |
| 1778006748 | 27.22° C | 69% | 1007.9 hPa | 0 mm | - | 965 W/m² | - |
| 1778006445 | 27.22° C | 71% | 1008.1 hPa | 0 mm | - | 565 W/m² | - |
| 1778006141 | 27.78° C | 70% | 1008.2 hPa | 0 mm | - | 248 W/m² | - |
| 1778005839 | 27.78° C | 69% | 1007.9 hPa | 0 mm | - | 354 W/m² | - |
| 1778005535 | 27.78° C | 69% | 1007.9 hPa | 0 mm | - | 837 W/m² | - |
| 1778005232 | 27.22° C | 70% | 1008.2 hPa | 0 mm | - | 653 W/m² | - |
| 1778004929 | 27.78° C | 70% | 1008.2 hPa | 0 mm | - | 523 W/m² | - |
| 1778004626 | 27.22° C | 71% | 1008 hPa | 0 mm | - | 1369 W/m² | - |
| 1778004321 | 27.22° C | 71% | 1008 hPa | 0 mm | - | 409 W/m² | - |
| 1778004021 | 27.22° C | 69% | 1007.9 hPa | 0 mm | - | 457 W/m² | - |
| 1778003715 | 27.22° C | 70% | 1008 hPa | 0 mm | - | 524 W/m² | - |
| 1778003413 | 27.22° C | 70% | 1008 hPa | 0 mm | - | 494 W/m² | - |
| 1778003109 | 26.67° C | 72% | 1008.1 hPa | 0 mm | - | 434 W/m² | - |
| 1778002805 | 26.11° C | 72% | 1008.3 hPa | 0 mm | - | 1215 W/m² | - |
| 1778002502 | 26.11° C | 73% | 1008.1 hPa | 0 mm | - | 345 W/m² | - |
| 1778002199 | 26.11° C | 74% | 1008.2 hPa | 0 mm | - | 234 W/m² | - |
* Rain latest hour (hover to see other rain measurements)
** Current wind speed in m/s (hover to see current wind gust speed)